EW1107 Weather Reports


Display with metric or nautical units.
time (UTC)temp
F
wind
direction
speed
MPH
gust
MPH
rain 1hr
in
rain 24hr
in
rain mn
in
humidity
%
barometer
mb
20260504173033 75 213 0.0 9.0 0.00 0.00 0.00 39 1009.9
20260504141016 80 171 8.0 24.0 0.00 0.00 0.00 35 1010.6
20260504140517 80 212 8.0 24.0 0.00 0.00 0.00 34 1010.6
20260504130505 78 260 14.0 23.0 0.00 0.00 0.00 36 1011.1
20260504120104 78 198 12.0 24.0 0.00 0.00 0.00 37 1011.5
20260504110551 78 306 14.0 23.0 0.00 0.00 0.00 37 1012.0
20260504100544 75 244 12.0 25.0 0.00 0.00 0.00 40 1012.6
20260504081527 71 189 12.0 28.0 0.00 0.00 0.00 41 1012.8
20260504081028 72 209 10.0 26.0 0.00 0.00 0.00 41 1012.7
20260504080525 71 184 11.0 26.0 0.00 0.00 0.00 42 1012.7
20260504050551 59 159 7.0 17.0 0.00 0.00 0.00 51 1012.7
20260504045549 59 206 11.0 21.0 0.00 0.00 0.00 51 1012.7
20260504045049 59 233 12.0 19.0 0.00 0.00 0.00 51 1012.7
20260504044548 58 223 11.0 21.0 0.00 0.00 0.00 52 1012.7
20260504044047 58 229 7.0 15.0 0.00 0.00 0.00 52 1012.6
20260504043546 57 200 8.0 17.0 0.00 0.00 0.00 53 1012.6
20260504043047 57 231 6.0 16.0 0.00 0.00 0.00 53 1012.6
20260504042542 57 168 7.0 16.0 0.00 0.00 0.00 54 1012.6
20260504042046 56 225 6.0 17.0 0.00 0.00 0.00 54 1012.6
20260504041540 56 217 4.0 17.0 0.00 0.00 0.00 55 1012.5
20260504041038 55 224 4.0 10.0 0.00 0.00 0.00 55 1012.5
20260504040537 55 189 5.0 10.0 0.00 0.00 0.00 55 1012.5
20260504040038 55 174 2.0 10.0 0.00 0.00 0.00 55 1012.5
20260504035536 55 194 4.0 10.0 0.00 0.00 0.00 55 1012.4
20260504035035 55 186 4.0 10.0 0.00 0.00 0.00 55 1012.4
20260504034533 55 196 3.0 13.0 0.00 0.00 0.00 55 1012.4
20260504034035 55 194 5.0 13.0 0.00 0.00 0.00 55 1012.4
20260504033531 55 183 3.0 8.0 0.00 0.00 0.00 55 1012.4
20260504033030 55 194 1.0 6.0 0.00 0.00 0.00 55 1012.4
20260504032530 55 184 2.0 9.0 0.00 0.00 0.00 55 1012.4
20260504032029 55 188 3.0 11.0 0.00 0.00 0.00 55 1012.4
20260504031529 55 179 4.0 8.0 0.00 0.00 0.00 55 1012.4
20260504031026 55 202 2.0 8.0 0.00 0.00 0.00 55 1012.4
20260504030526 55 180 3.0 9.0 0.00 0.00 0.00 54 1012.4
20260504030025 55 188 3.0 12.0 0.00 0.00 0.00 54 1012.4
20260504025525 56 196 3.0 12.0 0.00 0.00 0.00 54 1012.4
20260504025024 56 188 5.0 10.0 0.00 0.00 0.00 54 1012.5
20260504024524 56 200 4.0 10.0 0.00 0.00 0.00 54 1012.4
20260504024022 56 203 2.0 11.0 0.00 0.00 0.00 53 1012.4
20260504023522 56 205 5.0 10.0 0.00 0.00 0.00 53 1012.4
20260504023021 56 192 3.0 9.0 0.00 0.00 0.00 53 1012.4
20260504022524 56 208 4.0 11.0 0.00 0.00 0.00 53 1012.4
20260504022021 56 219 4.0 11.0 0.00 0.00 0.00 53 1012.4
20260504021520 56 211 5.0 12.0 0.00 0.00 0.00 53 1012.4
20260504021019 56 193 4.0 12.0 0.00 0.00 0.00 53 1012.4
20260504020519 56 185 3.0 9.0 0.00 0.00 0.00 53 1012.5
20260504020020 56 197 2.0 11.0 0.00 0.00 0.00 53 1012.5
20260504015519 56 191 3.0 12.0 0.00 0.00 0.00 53 1012.4
20260504015021 56 182 3.0 12.0 0.00 0.00 0.00 54 1012.4
20260504014524 56 202 5.0 11.0 0.00 0.00 0.00 54 1012.4
20260504014017 56 182 3.0 10.0 0.00 0.00 0.00 55 1012.5
20260504013516 56 193 3.0 10.0 0.00 0.00 0.00 55 1012.4
20260504013015 56 187 2.0 9.0 0.00 0.00 0.00 55 1012.5
20260504012515 56 168 2.0 9.0 0.00 0.00 0.00 55 1012.6
20260504012014 56 173 0.0 7.0 0.00 0.00 0.00 55 1012.6
20260504011512 57 175 0.0 7.0 0.00 0.00 0.00 54 1012.6
20260504011011 57 172 0.0 6.0 0.00 0.00 0.00 53 1012.6
20260504010510 57 182 3.0 8.0 0.00 0.00 0.00 53 1012.7
20260504010010 57 198 1.0 8.0 0.00 0.00 0.00 53 1012.7
20260504005512 57 209 3.0 8.0 0.00 0.00 0.00 53 1012.6
20260504005010 57 188 3.0 8.0 0.00 0.00 0.00 53 1012.6
20260504004517 58 192 1.0 7.0 0.00 0.00 0.00 54 1012.6
20260504004008 58 196 1.0 7.0 0.00 0.00 0.00 54 1012.6
20260504003511 58 217 0.0 0.0 0.00 0.00 0.00 54 1012.7
20260504003007 58 184 0.0 0.0 0.00 0.00 0.00 54 1012.7
20260504002506 58 180 0.0 0.0 0.00 0.00 0.00 53 1012.6
20260504002104 58 187 0.0 0.0 0.00 0.00 0.00 53 1012.7
20260504001504 59 188 0.0 0.0 0.00 0.00 0.00 53 1012.8
20260504001003 59 189 0.0 1.0 0.00 0.00 0.00 53 1012.8
20260504000503 59 190 0.0 7.0 0.00 0.00 0.00 52 1012.8
20260504000002 59 193 0.0 7.0 0.00 0.00 0.00 52 1012.8
20260503235501 59 209 0.0 8.0 0.00 0.00 0.00 52 1012.8
20260503235106 59 179 2.0 8.0 0.00 0.00 0.00 52 1012.9
20260503234628 59 219 1.0 8.0 0.00 0.00 0.00 53 1012.9
20260503234502 60 212 0.0 1.0 0.00 0.00 0.00 53 1012.9
20260503234103 60 197 0.0 1.0 0.00 0.00 0.00 53 1012.9
20260503233558 60 200 0.0 8.0 0.00 0.00 0.00 53 1013.0
20260503233057 60 217 0.0 8.0 0.00 0.00 0.00 52 1013.0
20260503232556 60 202 3.0 8.0 0.00 0.00 0.00 52 1013.1
20260503232057 60 207 1.0 7.0 0.00 0.00 0.00 53 1013.1
20260503231556 60 209 0.0 7.0 0.00 0.00 0.00 52 1013.1
20260503231055 60 188 1.0 7.0 0.00 0.00 0.00 52 1013.1
20260503230557 60 196 0.0 6.0 0.00 0.00 0.00 52 1013.1
20260503230054 61 190 1.0 6.0 0.00 0.00 0.00 52 1013.1
20260503225552 61 199 0.0 5.0 0.00 0.00 0.00 51 1013.1
20260503225053 61 207 1.0 6.0 0.00 0.00 0.00 51 1013.1
20260503224551 61 209 0.0 6.0 0.00 0.00 0.00 51 1013.0
20260503224052 62 200 0.0 6.0 0.00 0.00 0.00 51 1013.1
20260503223551 62 224 1.0 9.0 0.00 0.00 0.00 51 1013.1
20260503223050 62 204 3.0 10.0 0.00 0.00 0.00 50 1013.1
20260503222552 62 212 3.0 11.0 0.00 0.00 0.00 50 1013.1
20260503222048 62 190 0.0 8.0 0.00 0.00 0.00 50 1013.2
20260503221556 62 211 2.0 8.0 0.00 0.00 0.00 50 1013.1
20260503221047 62 232 3.0 8.0 0.00 0.00 0.00 50 1013.2
20260503220547 62 201 2.0 7.0 0.00 0.00 0.00 50 1013.2
20260503220047 62 199 0.0 1.0 0.00 0.00 0.00 49 1013.2
20260503215547 63 193 0.0 0.0 0.00 0.00 0.00 49 1013.2
20260503215046 63 196 0.0 0.0 0.00 0.00 0.00 49 1013.2
20260503214546 63 213 0.0 0.0 0.00 0.00 0.00 49 1013.3
20260503214050 63 208 0.0 0.0 0.00 0.00 0.00 49 1013.2